<?xml version="1.0" encoding="UTF-8" standalone="no" ?>
<gpx xmlns="http://www.topografix.com/GPX/1/1" xmlns:xsi="http://www.w3.org/2001/XMLSchema-instance" xsi:schemaLocation="http://www.topografix.com/GPX/1/1 http://www.topografix.com/GPX/1/1/gpx.xsd" version="1.1" creator="VisuGPX - https://www.visugpx.com">
  <metadata>
    <name>Semi marathon du Grési</name>
    <desc><![CDATA[Décollage prévu le 14 juin 2020 8h25]]></desc>
  </metadata>
  <wpt lat="45.22118" lon="5.85955">
    <ele>220.5</ele>
  </wpt>
  <trk>
    <name><![CDATA[Semi marathon du Grési_1]]></name>
    <trkseg>
      <trkpt lat="45.2164" lon="5.84618">
        <ele>216.8</ele>
        <time>2019-10-25T06:30:00.000Z</time>
      </trkpt>
      <trkpt lat="45.22097" lon="5.85234">
        <ele>219.1</ele>
        <time>2019-10-25T06:34:39.962Z</time>
      </trkpt>
      <trkpt lat="45.22091" lon="5.85268">
        <ele>218.7</ele>
        <time>2019-10-25T06:34:50.916Z</time>
      </trkpt>
      <trkpt lat="45.22051" lon="5.85294">
        <ele>218.3</ele>
        <time>2019-10-25T06:35:10.564Z</time>
      </trkpt>
      <trkpt lat="45.22017" lon="5.85291">
        <ele>218.2</ele>
        <time>2019-10-25T06:35:25.647Z</time>
      </trkpt>
      <trkpt lat="45.21969" lon="5.85227">
        <ele>218.2</ele>
        <time>2019-10-25T06:35:54.933Z</time>
      </trkpt>
      <trkpt lat="45.21946" lon="5.85242">
        <ele>218.1</ele>
        <time>2019-10-25T06:36:06.302Z</time>
      </trkpt>
      <trkpt lat="45.21934" lon="5.85239">
        <ele>218.1</ele>
        <time>2019-10-25T06:36:11.716Z</time>
      </trkpt>
      <trkpt lat="45.21904" lon="5.85277">
        <ele>219.2</ele>
        <time>2019-10-25T06:36:29.713Z</time>
      </trkpt>
      <trkpt lat="45.2188" lon="5.85255">
        <ele>219.3</ele>
        <time>2019-10-25T06:36:42.414Z</time>
      </trkpt>
      <trkpt lat="45.21783" lon="5.85123">
        <ele>218.8</ele>
        <time>2019-10-25T06:37:41.935Z</time>
      </trkpt>
      <trkpt lat="45.2176" lon="5.85141">
        <ele>218.9</ele>
        <time>2019-10-25T06:37:53.848Z</time>
      </trkpt>
      <trkpt lat="45.217" lon="5.85065">
        <ele>218.8</ele>
        <time>2019-10-25T06:38:29.537Z</time>
      </trkpt>
      <trkpt lat="45.2168" lon="5.85079">
        <ele>218.9</ele>
        <time>2019-10-25T06:38:39.104Z</time>
      </trkpt>
      <trkpt lat="45.2166" lon="5.85081">
        <ele>219.2</ele>
        <time>2019-10-25T06:38:48.149Z</time>
      </trkpt>
      <trkpt lat="45.21623" lon="5.8502">
        <ele>219.8</ele>
        <time>2019-10-25T06:39:13.416Z</time>
      </trkpt>
      <trkpt lat="45.21576" lon="5.84951">
        <ele>220.8</ele>
        <time>2019-10-25T06:39:43.193Z</time>
      </trkpt>
      <trkpt lat="45.21564" lon="5.84954">
        <ele>220.8</ele>
        <time>2019-10-25T06:39:48.607Z</time>
      </trkpt>
      <trkpt lat="45.21559" lon="5.8496">
        <ele>220.8</ele>
        <time>2019-10-25T06:39:51.499Z</time>
      </trkpt>
      <trkpt lat="45.21546" lon="5.85008">
        <ele>220.7</ele>
        <time>2019-10-25T06:40:07.691Z</time>
      </trkpt>
      <trkpt lat="45.21531" lon="5.85031">
        <ele>220.6</ele>
        <time>2019-10-25T06:40:17.230Z</time>
      </trkpt>
      <trkpt lat="45.21404" lon="5.84834">
        <ele>219.6</ele>
        <time>2019-10-25T06:41:40.696Z</time>
      </trkpt>
      <trkpt lat="45.21026" lon="5.84232">
        <ele>218.7</ele>
        <time>2019-10-25T06:45:53.522Z</time>
      </trkpt>
      <trkpt lat="45.21028" lon="5.84209">
        <ele>218.5</ele>
        <time>2019-10-25T06:46:00.764Z</time>
      </trkpt>
      <trkpt lat="45.21021" lon="5.84194">
        <ele>218.4</ele>
        <time>2019-10-25T06:46:06.251Z</time>
      </trkpt>
      <trkpt lat="45.21004" lon="5.8419">
        <ele>218.3</ele>
        <time>2019-10-25T06:46:13.883Z</time>
      </trkpt>
      <trkpt lat="45.20989" lon="5.84168">
        <ele>218.5</ele>
        <time>2019-10-25T06:46:23.642Z</time>
      </trkpt>
      <trkpt lat="45.20986" lon="5.84123">
        <ele>219.7</ele>
        <time>2019-10-25T06:46:37.813Z</time>
      </trkpt>
      <trkpt lat="45.21004" lon="5.84035">
        <ele>218.9</ele>
        <time>2019-10-25T06:47:06.207Z</time>
      </trkpt>
      <trkpt lat="45.21014" lon="5.84012">
        <ele>219.2</ele>
        <time>2019-10-25T06:47:14.653Z</time>
      </trkpt>
      <trkpt lat="45.21054" lon="5.84018">
        <ele>218.3</ele>
        <time>2019-10-25T06:47:32.631Z</time>
      </trkpt>
      <trkpt lat="45.21112" lon="5.84066">
        <ele>217.6</ele>
        <time>2019-10-25T06:48:02.550Z</time>
      </trkpt>
      <trkpt lat="45.21148" lon="5.84078">
        <ele>217.3</ele>
        <time>2019-10-25T06:48:18.984Z</time>
      </trkpt>
      <trkpt lat="45.21226" lon="5.84083">
        <ele>216.8</ele>
        <time>2019-10-25T06:48:53.523Z</time>
      </trkpt>
      <trkpt lat="45.21308" lon="5.8407">
        <ele>217.7</ele>
        <time>2019-10-25T06:49:30.447Z</time>
      </trkpt>
      <trkpt lat="45.21393" lon="5.84018">
        <ele>217.6</ele>
        <time>2019-10-25T06:50:11.344Z</time>
      </trkpt>
      <trkpt lat="45.21423" lon="5.84001">
        <ele>217.1</ele>
        <time>2019-10-25T06:50:25.847Z</time>
      </trkpt>
      <trkpt lat="45.21514" lon="5.84034">
        <ele>218.7</ele>
        <time>2019-10-25T06:51:07.611Z</time>
      </trkpt>
      <trkpt lat="45.21545" lon="5.84073">
        <ele>219</ele>
        <time>2019-10-25T06:51:25.610Z</time>
      </trkpt>
      <trkpt lat="45.21568" lon="5.84081">
        <ele>219.5</ele>
        <time>2019-10-25T06:51:36.260Z</time>
      </trkpt>
      <trkpt lat="45.21547" lon="5.83977">
        <ele>219.8</ele>
        <time>2019-10-25T06:52:09.908Z</time>
      </trkpt>
      <trkpt lat="45.21545" lon="5.83938">
        <ele>220.2</ele>
        <time>2019-10-25T06:52:22.176Z</time>
      </trkpt>
      <trkpt lat="45.2155" lon="5.83837">
        <ele>220</ele>
        <time>2019-10-25T06:52:53.930Z</time>
      </trkpt>
      <trkpt lat="45.21557" lon="5.83806">
        <ele>219.1</ele>
        <time>2019-10-25T06:53:04.247Z</time>
      </trkpt>
      <trkpt lat="45.21582" lon="5.83762">
        <ele>218.4</ele>
        <time>2019-10-25T06:53:21.881Z</time>
      </trkpt>
      <trkpt lat="45.21591" lon="5.83738">
        <ele>219.6</ele>
        <time>2019-10-25T06:53:30.442Z</time>
      </trkpt>
      <trkpt lat="45.21599" lon="5.83709">
        <ele>221</ele>
        <time>2019-10-25T06:53:40.170Z</time>
      </trkpt>
      <trkpt lat="45.21611" lon="5.83682">
        <ele>221.4</ele>
        <time>2019-10-25T06:53:50.177Z</time>
      </trkpt>
      <trkpt lat="45.21541" lon="5.83518">
        <ele>221.7</ele>
        <time>2019-10-25T06:54:50.260Z</time>
      </trkpt>
      <trkpt lat="45.21414" lon="5.83341">
        <ele>219.1</ele>
        <time>2019-10-25T06:56:09.440Z</time>
      </trkpt>
      <trkpt lat="45.21283" lon="5.83208">
        <ele>219.6</ele>
        <time>2019-10-25T06:57:21.161Z</time>
      </trkpt>
      <trkpt lat="45.2121" lon="5.8313">
        <ele>223.1</ele>
        <time>2019-10-25T06:58:01.687Z</time>
      </trkpt>
      <trkpt lat="45.21169" lon="5.83065">
        <ele>223.8</ele>
        <time>2019-10-25T06:58:28.990Z</time>
      </trkpt>
      <trkpt lat="45.21132" lon="5.83033">
        <ele>222.2</ele>
        <time>2019-10-25T06:58:48.142Z</time>
      </trkpt>
      <trkpt lat="45.2108" lon="5.82994">
        <ele>222</ele>
        <time>2019-10-25T06:59:14.380Z</time>
      </trkpt>
      <trkpt lat="45.20815" lon="5.82735">
        <ele>222.1</ele>
        <time>2019-10-25T07:01:37.339Z</time>
      </trkpt>
      <trkpt lat="45.20799" lon="5.82724">
        <ele>222.2</ele>
        <time>2019-10-25T07:01:45.336Z</time>
      </trkpt>
      <trkpt lat="45.2077" lon="5.82704">
        <ele>222.3</ele>
        <time>2019-10-25T07:01:59.928Z</time>
      </trkpt>
      <trkpt lat="45.20609" lon="5.82528">
        <ele>222.4</ele>
        <time>2019-10-25T07:03:30.032Z</time>
      </trkpt>
      <trkpt lat="45.20374" lon="5.82267">
        <ele>220.2</ele>
        <time>2019-10-25T07:05:43.006Z</time>
      </trkpt>
      <trkpt lat="45.203" lon="5.82151">
        <ele>220.3</ele>
        <time>2019-10-25T07:06:32.091Z</time>
      </trkpt>
      <trkpt lat="45.2026" lon="5.82045">
        <ele>219.9</ele>
        <time>2019-10-25T07:07:09.423Z</time>
      </trkpt>
      <trkpt lat="45.20243" lon="5.81927">
        <ele>219.9</ele>
        <time>2019-10-25T07:07:47.200Z</time>
      </trkpt>
      <trkpt lat="45.20248" lon="5.81863">
        <ele>217.9</ele>
        <time>2019-10-25T07:08:07.398Z</time>
      </trkpt>
      <trkpt lat="45.20277" lon="5.81769">
        <ele>217</ele>
        <time>2019-10-25T07:08:39.570Z</time>
      </trkpt>
      <trkpt lat="45.20321" lon="5.81684">
        <ele>216.3</ele>
        <time>2019-10-25T07:09:12.576Z</time>
      </trkpt>
      <trkpt lat="45.20353" lon="5.81647">
        <ele>215.9</ele>
        <time>2019-10-25T07:09:30.852Z</time>
      </trkpt>
      <trkpt lat="45.20463" lon="5.81421">
        <ele>219.2</ele>
        <time>2019-10-25T07:10:57.000Z</time>
      </trkpt>
      <trkpt lat="45.20568" lon="5.81181">
        <ele>221.1</ele>
        <time>2019-10-25T07:12:25.618Z</time>
      </trkpt>
      <trkpt lat="45.20578" lon="5.8112">
        <ele>220.1</ele>
        <time>2019-10-25T07:12:44.946Z</time>
      </trkpt>
      <trkpt lat="45.20582" lon="5.80853">
        <ele>219.6</ele>
        <time>2019-10-25T07:14:08.725Z</time>
      </trkpt>
      <trkpt lat="45.20575" lon="5.80693">
        <ele>220.3</ele>
        <time>2019-10-25T07:14:59.015Z</time>
      </trkpt>
      <trkpt lat="45.2058" lon="5.80515">
        <ele>225.7</ele>
        <time>2019-10-25T07:15:54.897Z</time>
      </trkpt>
      <trkpt lat="45.20571" lon="5.80477">
        <ele>227.2</ele>
        <time>2019-10-25T07:16:07.496Z</time>
      </trkpt>
      <trkpt lat="45.20574" lon="5.8043">
        <ele>227.1</ele>
        <time>2019-10-25T07:16:22.323Z</time>
      </trkpt>
      <trkpt lat="45.20582" lon="5.80399">
        <ele>226.5</ele>
        <time>2019-10-25T07:16:32.642Z</time>
      </trkpt>
      <trkpt lat="45.20566" lon="5.80246">
        <ele>221.1</ele>
        <time>2019-10-25T07:17:21.177Z</time>
      </trkpt>
      <trkpt lat="45.20547" lon="5.80125">
        <ele>223.2</ele>
        <time>2019-10-25T07:17:59.695Z</time>
      </trkpt>
      <trkpt lat="45.20492" lon="5.7992">
        <ele>221.1</ele>
        <time>2019-10-25T07:19:08.614Z</time>
      </trkpt>
      <trkpt lat="45.20451" lon="5.79778">
        <ele>222</ele>
        <time>2019-10-25T07:19:56.733Z</time>
      </trkpt>
      <trkpt lat="45.20415" lon="5.79738">
        <ele>224</ele>
        <time>2019-10-25T07:20:16.820Z</time>
      </trkpt>
      <trkpt lat="45.20383" lon="5.79728">
        <ele>223.1</ele>
        <time>2019-10-25T07:20:31.588Z</time>
      </trkpt>
      <trkpt lat="45.20351" lon="5.79731">
        <ele>223.7</ele>
        <time>2019-10-25T07:20:45.736Z</time>
      </trkpt>
      <trkpt lat="45.20329" lon="5.7975">
        <ele>225.3</ele>
        <time>2019-10-25T07:20:57.142Z</time>
      </trkpt>
      <trkpt lat="45.20256" lon="5.79845">
        <ele>218.6</ele>
        <time>2019-10-25T07:21:41.331Z</time>
      </trkpt>
      <trkpt lat="45.20152" lon="5.7999">
        <ele>214.1</ele>
        <time>2019-10-25T07:22:46.108Z</time>
      </trkpt>
      <trkpt lat="45.20049" lon="5.80036">
        <ele>214</ele>
        <time>2019-10-25T07:23:34.431Z</time>
      </trkpt>
      <trkpt lat="45.19968" lon="5.80031">
        <ele>214.8</ele>
        <time>2019-10-25T07:24:10.231Z</time>
      </trkpt>
      <trkpt lat="45.19915" lon="5.80003">
        <ele>215.8</ele>
        <time>2019-10-25T07:24:35.347Z</time>
      </trkpt>
      <trkpt lat="45.1978" lon="5.79802">
        <ele>218.8</ele>
        <time>2019-10-25T07:26:02.556Z</time>
      </trkpt>
      <trkpt lat="45.19716" lon="5.79662">
        <ele>218</ele>
        <time>2019-10-25T07:26:54.944Z</time>
      </trkpt>
      <trkpt lat="45.1969" lon="5.79559">
        <ele>217.6</ele>
        <time>2019-10-25T07:27:29.177Z</time>
      </trkpt>
      <trkpt lat="45.19625" lon="5.79427">
        <ele>215.5</ele>
        <time>2019-10-25T07:28:19.659Z</time>
      </trkpt>
      <trkpt lat="45.19551" lon="5.79321">
        <ele>215.5</ele>
        <time>2019-10-25T07:29:06.472Z</time>
      </trkpt>
      <trkpt lat="45.19528" lon="5.79304">
        <ele>215.7</ele>
        <time>2019-10-25T07:29:18.119Z</time>
      </trkpt>
      <trkpt lat="45.19489" lon="5.79306">
        <ele>216.1</ele>
        <time>2019-10-25T07:29:35.701Z</time>
      </trkpt>
      <trkpt lat="45.1947" lon="5.79333">
        <ele>216</ele>
        <time>2019-10-25T07:29:47.682Z</time>
      </trkpt>
      <trkpt lat="45.19449" lon="5.79377">
        <ele>215.6</ele>
        <time>2019-10-25T07:30:04.216Z</time>
      </trkpt>
      <trkpt lat="45.19376" lon="5.79673">
        <ele>216.1</ele>
        <time>2019-10-25T07:31:42.552Z</time>
      </trkpt>
      <trkpt lat="45.19359" lon="5.79749">
        <ele>215.4</ele>
        <time>2019-10-25T07:32:07.655Z</time>
      </trkpt>
      <trkpt lat="45.19355" lon="5.79793">
        <ele>215.6</ele>
        <time>2019-10-25T07:32:21.589Z</time>
      </trkpt>
      <trkpt lat="45.1933" lon="5.79844">
        <ele>217.9</ele>
        <time>2019-10-25T07:32:40.997Z</time>
      </trkpt>
      <trkpt lat="45.19319" lon="5.79969">
        <ele>215.8</ele>
        <time>2019-10-25T07:33:20.538Z</time>
      </trkpt>
      <trkpt lat="45.19305" lon="5.80028">
        <ele>216.5</ele>
        <time>2019-10-25T07:33:40.085Z</time>
      </trkpt>
      <trkpt lat="45.19274" lon="5.80074">
        <ele>218</ele>
        <time>2019-10-25T07:33:59.843Z</time>
      </trkpt>
      <trkpt lat="45.19257" lon="5.80203">
        <ele>216</ele>
        <time>2019-10-25T07:34:40.765Z</time>
      </trkpt>
      <trkpt lat="45.1923" lon="5.8029">
        <ele>217.1</ele>
        <time>2019-10-25T07:35:10.429Z</time>
      </trkpt>
      <trkpt lat="45.19196" lon="5.80449">
        <ele>216.5</ele>
        <time>2019-10-25T07:36:02.635Z</time>
      </trkpt>
      <trkpt lat="45.19147" lon="5.80561">
        <ele>217.2</ele>
        <time>2019-10-25T07:36:43.912Z</time>
      </trkpt>
      <trkpt lat="45.19123" lon="5.80599">
        <ele>216.5</ele>
        <time>2019-10-25T07:36:59.912Z</time>
      </trkpt>
      <trkpt lat="45.19004" lon="5.80664">
        <ele>215.4</ele>
        <time>2019-10-25T07:37:56.728Z</time>
      </trkpt>
      <trkpt lat="45.19006" lon="5.80686">
        <ele>215.4</ele>
        <time>2019-10-25T07:38:03.695Z</time>
      </trkpt>
      <trkpt lat="45.19016" lon="5.80708">
        <ele>215.5</ele>
        <time>2019-10-25T07:38:11.878Z</time>
      </trkpt>
      <trkpt lat="45.19025" lon="5.80724">
        <ele>215.6</ele>
        <time>2019-10-25T07:38:18.347Z</time>
      </trkpt>
      <trkpt lat="45.19371" lon="5.80963">
        <ele>215.9</ele>
        <time>2019-10-25T07:41:09.411Z</time>
      </trkpt>
      <trkpt lat="45.19429" lon="5.81008">
        <ele>216.5</ele>
        <time>2019-10-25T07:41:38.759Z</time>
      </trkpt>
      <trkpt lat="45.19598" lon="5.81359">
        <ele>216.6</ele>
        <time>2019-10-25T07:43:51.912Z</time>
      </trkpt>
      <trkpt lat="45.19732" lon="5.81643">
        <ele>216.9</ele>
        <time>2019-10-25T07:45:39.119Z</time>
      </trkpt>
      <trkpt lat="45.19768" lon="5.81701">
        <ele>215.5</ele>
        <time>2019-10-25T07:46:03.351Z</time>
      </trkpt>
      <trkpt lat="45.19867" lon="5.81811">
        <ele>216.8</ele>
        <time>2019-10-25T07:46:59.458Z</time>
      </trkpt>
      <trkpt lat="45.1997" lon="5.81889">
        <ele>216.7</ele>
        <time>2019-10-25T07:47:51.114Z</time>
      </trkpt>
      <trkpt lat="45.2013" lon="5.81963">
        <ele>215.9</ele>
        <time>2019-10-25T07:49:06.019Z</time>
      </trkpt>
      <trkpt lat="45.20151" lon="5.81985">
        <ele>215.6</ele>
        <time>2019-10-25T07:49:17.690Z</time>
      </trkpt>
      <trkpt lat="45.2018" lon="5.81984">
        <ele>216.8</ele>
        <time>2019-10-25T07:49:30.556Z</time>
      </trkpt>
      <trkpt lat="45.20219" lon="5.81981">
        <ele>218.4</ele>
        <time>2019-10-25T07:49:47.836Z</time>
      </trkpt>
      <trkpt lat="45.20231" lon="5.82065">
        <ele>219.4</ele>
        <time>2019-10-25T07:50:14.787Z</time>
      </trkpt>
      <trkpt lat="45.20265" lon="5.82042">
        <ele>219.8</ele>
        <time>2019-10-25T07:50:31.203Z</time>
      </trkpt>
      <trkpt lat="45.20301" lon="5.82146">
        <ele>220.3</ele>
        <time>2019-10-25T07:51:07.400Z</time>
      </trkpt>
      <trkpt lat="45.20377" lon="5.82265">
        <ele>220.2</ele>
        <time>2019-10-25T07:51:57.604Z</time>
      </trkpt>
      <trkpt lat="45.20764" lon="5.82694">
        <ele>222.4</ele>
        <time>2019-10-25T07:55:36.170Z</time>
      </trkpt>
      <trkpt lat="45.20817" lon="5.82733">
        <ele>222.1</ele>
        <time>2019-10-25T07:56:02.687Z</time>
      </trkpt>
      <trkpt lat="45.21079" lon="5.82986">
        <ele>222</ele>
        <time>2019-10-25T07:58:23.805Z</time>
      </trkpt>
      <trkpt lat="45.21164" lon="5.83066">
        <ele>223.1</ele>
        <time>2019-10-25T07:59:09.304Z</time>
      </trkpt>
      <trkpt lat="45.21225" lon="5.83155">
        <ele>222.5</ele>
        <time>2019-10-25T07:59:47.899Z</time>
      </trkpt>
      <trkpt lat="45.21161" lon="5.83202">
        <ele>220.9</ele>
        <time>2019-10-25T08:00:20.025Z</time>
      </trkpt>
      <trkpt lat="45.21148" lon="5.83198">
        <ele>221</ele>
        <time>2019-10-25T08:00:25.809Z</time>
      </trkpt>
      <trkpt lat="45.21122" lon="5.8313">
        <ele>222.2</ele>
        <time>2019-10-25T08:00:50.092Z</time>
      </trkpt>
      <trkpt lat="45.21296" lon="5.82776">
        <ele>221.2</ele>
        <time>2019-10-25T08:03:05.230Z</time>
      </trkpt>
      <trkpt lat="45.21315" lon="5.82736">
        <ele>222.3</ele>
        <time>2019-10-25T08:03:20.367Z</time>
      </trkpt>
      <trkpt lat="45.21376" lon="5.82688">
        <ele>220.4</ele>
        <time>2019-10-25T08:03:51.259Z</time>
      </trkpt>
      <trkpt lat="45.21416" lon="5.82629">
        <ele>221.1</ele>
        <time>2019-10-25T08:04:16.773Z</time>
      </trkpt>
      <trkpt lat="45.21564" lon="5.82518">
        <ele>219.2</ele>
        <time>2019-10-25T08:05:31.274Z</time>
      </trkpt>
      <trkpt lat="45.21762" lon="5.82379">
        <ele>221.3</ele>
        <time>2019-10-25T08:07:09.881Z</time>
      </trkpt>
      <trkpt lat="45.21804" lon="5.82368">
        <ele>220.5</ele>
        <time>2019-10-25T08:07:28.704Z</time>
      </trkpt>
      <trkpt lat="45.21817" lon="5.82371">
        <ele>220.3</ele>
        <time>2019-10-25T08:07:34.737Z</time>
      </trkpt>
      <trkpt lat="45.21859" lon="5.82467">
        <ele>217.6</ele>
        <time>2019-10-25T08:08:10.077Z</time>
      </trkpt>
      <trkpt lat="45.21846" lon="5.82517">
        <ele>217.7</ele>
        <time>2019-10-25T08:08:26.853Z</time>
      </trkpt>
      <trkpt lat="45.21879" lon="5.8256">
        <ele>217.6</ele>
        <time>2019-10-25T08:08:46.832Z</time>
      </trkpt>
      <trkpt lat="45.22025" lon="5.82703">
        <ele>217.4</ele>
        <time>2019-10-25T08:10:05.995Z</time>
      </trkpt>
      <trkpt lat="45.22076" lon="5.8268">
        <ele>217.8</ele>
        <time>2019-10-25T08:10:29.700Z</time>
      </trkpt>
      <trkpt lat="45.22155" lon="5.82613">
        <ele>218</ele>
        <time>2019-10-25T08:11:10.361Z</time>
      </trkpt>
      <trkpt lat="45.22231" lon="5.82568">
        <ele>218.7</ele>
        <time>2019-10-25T08:11:47.343Z</time>
      </trkpt>
      <trkpt lat="45.22437" lon="5.82416">
        <ele>219.9</ele>
        <time>2019-10-25T08:13:30.579Z</time>
      </trkpt>
      <trkpt lat="45.22464" lon="5.82429">
        <ele>219.8</ele>
        <time>2019-10-25T08:13:43.174Z</time>
      </trkpt>
      <trkpt lat="45.22576" lon="5.82552">
        <ele>220.8</ele>
        <time>2019-10-25T08:14:46.213Z</time>
      </trkpt>
      <trkpt lat="45.22873" lon="5.8309">
        <ele>221.3</ele>
        <time>2019-10-25T08:18:20.187Z</time>
      </trkpt>
      <trkpt lat="45.22848" lon="5.83113">
        <ele>221.1</ele>
        <time>2019-10-25T08:18:33.583Z</time>
      </trkpt>
      <trkpt lat="45.22739" lon="5.83199">
        <ele>220</ele>
        <time>2019-10-25T08:19:28.894Z</time>
      </trkpt>
      <trkpt lat="45.22581" lon="5.83408">
        <ele>217.4</ele>
        <time>2019-10-25T08:21:04.964Z</time>
      </trkpt>
      <trkpt lat="45.22585" lon="5.83424">
        <ele>217.2</ele>
        <time>2019-10-25T08:21:10.323Z</time>
      </trkpt>
      <trkpt lat="45.22809" lon="5.83732">
        <ele>220.3</ele>
        <time>2019-10-25T08:23:28.923Z</time>
      </trkpt>
      <trkpt lat="45.22709" lon="5.83867">
        <ele>220.9</ele>
        <time>2019-10-25T08:24:30.136Z</time>
      </trkpt>
      <trkpt lat="45.22599" lon="5.83739">
        <ele>220.2</ele>
        <time>2019-10-25T08:25:33.658Z</time>
      </trkpt>
      <trkpt lat="45.22591" lon="5.8374">
        <ele>220.4</ele>
        <time>2019-10-25T08:25:37.122Z</time>
      </trkpt>
      <trkpt lat="45.2252" lon="5.83794">
        <ele>223.1</ele>
        <time>2019-10-25T08:26:13.037Z</time>
      </trkpt>
      <trkpt lat="45.22488" lon="5.83815">
        <ele>223.7</ele>
        <time>2019-10-25T08:26:28.610Z</time>
      </trkpt>
      <trkpt lat="45.22439" lon="5.83876">
        <ele>223</ele>
        <time>2019-10-25T08:26:57.491Z</time>
      </trkpt>
      <trkpt lat="45.22421" lon="5.83855">
        <ele>223</ele>
        <time>2019-10-25T08:27:07.972Z</time>
      </trkpt>
      <trkpt lat="45.22398" lon="5.83816">
        <ele>223.1</ele>
        <time>2019-10-25T08:27:23.993Z</time>
      </trkpt>
      <trkpt lat="45.22382" lon="5.83839">
        <ele>223.7</ele>
        <time>2019-10-25T08:27:34.193Z</time>
      </trkpt>
      <trkpt lat="45.22336" lon="5.83901">
        <ele>223.9</ele>
        <time>2019-10-25T08:28:02.363Z</time>
      </trkpt>
      <trkpt lat="45.22317" lon="5.83922">
        <ele>223.5</ele>
        <time>2019-10-25T08:28:13.090Z</time>
      </trkpt>
      <trkpt lat="45.22293" lon="5.83981">
        <ele>223.3</ele>
        <time>2019-10-25T08:28:34.445Z</time>
      </trkpt>
      <trkpt lat="45.22279" lon="5.83994">
        <ele>223.4</ele>
        <time>2019-10-25T08:28:41.926Z</time>
      </trkpt>
      <trkpt lat="45.222" lon="5.83994">
        <ele>225.6</ele>
        <time>2019-10-25T08:29:17.050Z</time>
      </trkpt>
      <trkpt lat="45.22166" lon="5.84079">
        <ele>228.1</ele>
        <time>2019-10-25T08:29:47.391Z</time>
      </trkpt>
      <trkpt lat="45.22097" lon="5.84166">
        <ele>226.7</ele>
        <time>2019-10-25T08:30:28.255Z</time>
      </trkpt>
      <trkpt lat="45.22181" lon="5.84279">
        <ele>229.5</ele>
        <time>2019-10-25T08:31:19.720Z</time>
      </trkpt>
      <trkpt lat="45.22358" lon="5.845">
        <ele>222.9</ele>
        <time>2019-10-25T08:33:04.599Z</time>
      </trkpt>
      <trkpt lat="45.22616" lon="5.84821">
        <ele>218.9</ele>
        <time>2019-10-25T08:35:37.028Z</time>
      </trkpt>
      <trkpt lat="45.22821" lon="5.85066">
        <ele>221.6</ele>
        <time>2019-10-25T08:37:36.114Z</time>
      </trkpt>
      <trkpt lat="45.22964" lon="5.85252">
        <ele>222</ele>
        <time>2019-10-25T08:39:02.449Z</time>
      </trkpt>
      <trkpt lat="45.23019" lon="5.85315">
        <ele>221.5</ele>
        <time>2019-10-25T08:39:33.889Z</time>
      </trkpt>
      <trkpt lat="45.23075" lon="5.85365">
        <ele>221.6</ele>
        <time>2019-10-25T08:40:03.205Z</time>
      </trkpt>
      <trkpt lat="45.22993" lon="5.85496">
        <ele>223.6</ele>
        <time>2019-10-25T08:40:58.072Z</time>
      </trkpt>
      <trkpt lat="45.22979" lon="5.85535">
        <ele>222.9</ele>
        <time>2019-10-25T08:41:11.815Z</time>
      </trkpt>
      <trkpt lat="45.22939" lon="5.85446">
        <ele>222.7</ele>
        <time>2019-10-25T08:41:44.955Z</time>
      </trkpt>
      <trkpt lat="45.22796" lon="5.85268">
        <ele>222</ele>
        <time>2019-10-25T08:43:09.380Z</time>
      </trkpt>
      <trkpt lat="45.22772" lon="5.85258">
        <ele>221.5</ele>
        <time>2019-10-25T08:43:20.493Z</time>
      </trkpt>
      <trkpt lat="45.22709" lon="5.85253">
        <ele>220.3</ele>
        <time>2019-10-25T08:43:48.759Z</time>
      </trkpt>
      <trkpt lat="45.22657" lon="5.85346">
        <ele>220.1</ele>
        <time>2019-10-25T08:44:25.834Z</time>
      </trkpt>
      <trkpt lat="45.22614" lon="5.85309">
        <ele>220.6</ele>
        <time>2019-10-25T08:44:48.475Z</time>
      </trkpt>
      <trkpt lat="45.22584" lon="5.85326">
        <ele>220.9</ele>
        <time>2019-10-25T08:45:02.684Z</time>
      </trkpt>
      <trkpt lat="45.22483" lon="5.85283">
        <ele>219.8</ele>
        <time>2019-10-25T08:45:49.511Z</time>
      </trkpt>
      <trkpt lat="45.22386" lon="5.8528">
        <ele>220.1</ele>
        <time>2019-10-25T08:46:32.798Z</time>
      </trkpt>
      <trkpt lat="45.2232" lon="5.85216">
        <ele>219.2</ele>
        <time>2019-10-25T08:47:08.202Z</time>
      </trkpt>
      <trkpt lat="45.22288" lon="5.85251">
        <ele>219.3</ele>
        <time>2019-10-25T08:47:26.329Z</time>
      </trkpt>
      <trkpt lat="45.22274" lon="5.85359">
        <ele>219.6</ele>
        <time>2019-10-25T08:48:00.719Z</time>
      </trkpt>
      <trkpt lat="45.22276" lon="5.8541">
        <ele>219.3</ele>
        <time>2019-10-25T08:48:16.725Z</time>
      </trkpt>
      <trkpt lat="45.22275" lon="5.85536">
        <ele>218.5</ele>
        <time>2019-10-25T08:49:42.053Z</time>
      </trkpt>
      <trkpt lat="45.22229" lon="5.85663">
        <ele>219</ele>
        <time>2019-10-25T08:50:28.068Z</time>
      </trkpt>
      <trkpt lat="45.22172" lon="5.85786">
        <ele>219.6</ele>
      </trkpt>
      <trkpt lat="45.22166" lon="5.85884">
        <ele>220.3</ele>
      </trkpt>
      <trkpt lat="45.22138" lon="5.85917">
        <ele>220.6</ele>
      </trkpt>
    </trkseg>
  </trk>
</gpx>